Find Yamal-201

NORAD ID: 28094 Int'l Des: 2003-053 Owner: GAZC Country: RU operational
MEOCIRCULARGSO

リアルタイム位置

3D地球を読み込み中...

Yamal-201について

説明を読み込み中...

次回通過

Passes for default location (London). Set your location on the main map for personalized predictions.

高度履歴

Loading altitude history...

軌道要素

1 28094U 03053B 26105.88397992 -.00000046 00000-0 00000-0 0 9994
2 28094 9.4727 56.1728 0000483 244.6995 291.7289 1.00310646 84255
Epoch: Apr 15, 2026 • Age: 9 hours

現在のステータス

高度 35775.6 km
速度 3.08 km/s
衛星直下点 -7.22°S, 70.76°E
打ち上げ日 Nov 24, 2003
運用期間 22.3 years
タイプ other

技術仕様

分類 Payload
質量 1326.00 kg
乾燥質量 1206.00 kg
総質量 1326.00 kg
長さ 2.00 m
直径 2.00 m
スパン 12.00 m
形状 Box + 2 Pan
製造者 RKKE
バスタイプ Yamal
フェーズステータス In Orbit
所有者/国 GAZC/RU

Most Searched